Wind from 025 at 1 knots gusting 6

Air temperature 15.6° C
Dewpoint 14.6° C

Last reported at 2014-Apr-20 20:00 UTC.
Time now 2014-Apr-20 21:10 UTC

Location: N 37°53' W 004°48'.
View on Google Maps.

See reports from other nearby stations

Tides Stations Pressure Air Temp Water Temp Dewpoint Dewpoint depression Visibility Wind Speed Wind Dir Waves Ship positions

  
sailing weather and tide predictions

EA7NW Cordoba ES weather

date/time (UTC)wind fromknots sea level pressurealtimeterstation pressurevisibilityair tempwater tempwave heightnotes
2014-Apr-20 20:00 025 1 gusting 6 15.6
2014-Apr-20 19:46 070 15.0
2014-Apr-20 19:15 070 15.0
2014-Apr-20 18:15 070 0 gusting 7 15.0
2014-Apr-20 18:01 070 2 gusting 8 15.0
2014-Apr-20 16:30 070 4 gusting 14 15.6
2014-Apr-20 16:15 070 5 gusting 12 15.6
2014-Apr-20 16:00 070 2 gusting 14 15.6
2014-Apr-20 15:45 205 1 gusting 6 15.6
2014-Apr-20 15:15 205 5 gusting 7 15.0
2014-Apr-20 15:04 205 5 gusting 10 15.6
2014-Apr-20 14:00 205 4 gusting 10 15.6
2014-Apr-20 13:15 205 5 gusting 19 16.1
2014-Apr-20 12:30 025 2 gusting 6 17.8
2014-Apr-20 12:15 205 2 gusting 6 17.8
2014-Apr-20 10:15 105 2 gusting 6 16.1
2014-Apr-20 08:15 250 2 gusting 5 13.9
2014-Apr-20 08:00 250 2 gusting 5 13.3
2014-Apr-20 07:30 228 2 gusting 10 13.3
2014-Apr-20 07:15 250 2 gusting 6 13.3
2014-Apr-20 07:00 250 0 gusting 6 13.3
2014-Apr-20 06:45 205 2 gusting 6 13.3
2014-Apr-20 06:15 115 1 gusting 6 13.3
2014-Apr-20 05:45 181 2 gusting 7 13.3
2014-Apr-20 05:15 250 2 gusting 6 13.3
2014-Apr-20 05:00 250 4 gusting 8 13.3
2014-Apr-20 04:45 295 2 gusting 8 13.3
2014-Apr-20 04:00 205 4 gusting 8 13.3
2014-Apr-20 03:45 205 1 gusting 6 13.9
2014-Apr-20 03:30 250 3 gusting 8 13.9
2014-Apr-20 03:00 115 3 gusting 6 13.9
2014-Apr-19 09:00 115 2 gusting 7 16.1
2014-Apr-19 08:15 115 2 gusting 8 16.1
2014-Apr-19 07:30 148 5 gusting 10 16.1
2014-Apr-19 07:00 115 2 gusting 6 15.6
2014-Apr-19 06:30 115 2 gusting 5 15.6
2014-Apr-19 06:15 070 0 gusting 6 15.6
2014-Apr-19 05:30 205 2 gusting 7 15.6
2014-Apr-19 04:30 205 2 gusting 8 15.6
2014-Apr-19 04:15 160 5 gusting 11 16.1
2014-Apr-19 04:00 115 3 gusting 13 16.1
2014-Apr-19 02:45 138 7 gusting 12 16.7
2014-Apr-19 02:30 205 5 gusting 13 16.7
2014-Apr-19 02:00 119 4 gusting 11 16.7
2014-Apr-19 01:45 205 2 gusting 8 16.7
2014-Apr-19 01:30 250 3 gusting 7 16.7
2014-Apr-19 01:15 205 4 gusting 8 16.7
2014-Apr-19 01:00 115 3 gusting 11 16.7
2014-Apr-19 00:45 137 4 gusting 11 16.7
2014-Apr-18 22:45 115 6 gusting 13 17.8
2014-Apr-18 22:15 205 6 gusting 11 17.8
2014-Apr-18 21:45 205 5 gusting 13 18.3
2014-Apr-18 21:30 205 3 gusting 8 18.9
2014-Apr-18 21:15 160 4 gusting 11 19.4
2014-Apr-18 21:00 115 4 gusting 11 19.4